sat.trackr.live / text

‹ back to catalog

ONEWEB-0614

NORAD 55156 · 2023-004S

PAYLOAD ACTIVE UNKNOWN

§ Identity

Operator
Country
UK
Launch date
2023-01-10
Launch site
AFETR
Launch vehicle
Mass (kg)
RCS (m²)

Purposes: comms

External: N2YO · Heavens-Above · Gunter

§ Orbital elements

Epoch: 2026-09-19T23:48:33.740352Z

Period
109.81 min
Inclination
87.8959°
Eccentricity
0.0001988
Mean motion
13.11415059 rev/d
Perigee alt
1,216.2 km
Apogee alt
1,219.2 km
Semi-major
7,595.8 km
B*
-1.2577e-3
RAAN
2.2276°
Arg perigee
113.1677°
Mean anomaly
246.9661°
Rev number
17,826

§ Raw data

ONEWEB-06141 55156U 23004S   26262.99205718 -.00000433  00000+0 -12577-2 0  99952 55156  87.8959   2.2276 0001988 113.1677 246.9661 13.11415059178269

JSON: /api/v1/satellites/55156 · /tle

For live sub-satellite position, see the globe view (requires WebGL).

§ Visibility from observer

Set your observer location to see the next 7 days of passes ≥ 10°. The values pass through the URL so the page stays shareable.

No JS? Fill the form by hand. The geolocation button needs JavaScript.